Погода в Малом Вениже

Россия / Удмуртская Республика     57°52′50″N   52°29′57″E
темп.,
°C
ветер,
м/с
пор.,
м/с
влажн.,
%
обл.,
%
осадки,
мм/ч
давл.,
гПа
погр.,
м
29 июня, ср
ср2901:00+6ссз41280100 0.0 1018593
04:00+4сз4109010 0.0 1017300
07:00+9ссз477357 0.0 1017392
10:00+14с57535 0.0 10161281
13:00+17с57425 0.0 10151627
16:00+19ссз57402 0.0 10141823
19:00+16ссз375799 0.0 1013342
22:00+11ссз2271100 0.0 101424
30 июня, чт
чт3001:00+10зсз2575100 0.0 101270
04:00+8зсз3677100 0.0 1011118
07:00+12сз366565 0.0 1010271
10:00+15с565298 0.0 10091280
13:00+11св688498 1.4 1011728
16:00+11ссв4866100 2.1 1011909
19:00+9ссв698018 0.9 1012981
22:00+6с4119129 1.1 1013507
1 июля, пт
пт101:00+7ссв5118899 0.1 1013584
04:00+7ссв5129699 0.9 1013707
07:00+9св5119197 0.3 1015650
10:00+15всв69565 0.3 10151181
13:00+18св564622 0.0 10151897
16:00+19св4544100 0.0 10152085
19:00+17ссв376028 0.0 1015345
22:00+11ссв117498 0.0 101510
2 июля, сб
сб201:00+9сз117881 0.0 101510
04:00+9сз228073 0.0 101412
07:00+13сз126767 0.0 1014164
10:00+19сз115030 0.0 1012795
13:00+21сз12436 0.0 10121951
16:00+21сз234413 0.0 10111908
19:00+18ссз36715 0.0 1011364
22:00+14сз388769 0.0 1011166
3 июля, вс
вс301:00+13ссз248972 0.0 1011107
04:00+11ссз269394 0.0 1010123
07:00+13ссз3791100 0.0 1010286
10:00+15с4781100 0.1 1009593
13:00+16с366710 0.1 1009658
16:00+18ссз5859100 0.1 10071023
19:00+14св4985100 1.4 1008475
22:00+10с3889100 1.6 1009188